Lexington Weather

Lexington, Massachusetts, USA

38°F
1/23/2020 11:10am 
  • Lexington Conditions: Clear
  • Temperature: 37.8°F / 3.2°CWarmer 6.3°F than last hour.
  • Dew Point: 22.1°FIncreased 1.1°Fsince last hour.
  • Relative Humidity: 53%Decreased 12.0% since last hour.
  • Wind: Calm, 10-min avg: Calm, gust: 3 mph
  • Barometer: 30.33 in Steady
  • Visibility: 10 miles
  • Rain Today: 0.00 in
  •   

Regional Weather Roundup
for Boston / Norton, MA

        
000
ASUS41 KBOX 222100
RWRBOX

REGIONAL WEATHER ROUNDUP
NATIONAL WEATHER SERVICE BOSTON/NORTON MA
400 PM EST WED JAN 22 2020

NOTE:  "FAIR" INDICATES FEW OR NO CLOUDS BELOW 12,000 FEET WITH NO 
SIGNIFICANT WEATHER AND/OR OBSTRUCTIONS TO VISIBILITY.

MAZALL-222200-
EASTERN MASSACHUSETTS
  
CITY           SKY/WX    TMP DP  RH WIND       PRES   REMARKS
BOSTON         FAIR      38  16  40 SW8       30.39S                  
BEVERLY        FAIR      35  16  45 W5        30.38S WCI  31          
LAWRENCE       FAIR      34  16  47 W6        30.39S WCI  29          
BEDFORD        FAIR      35  15  44 SW5       30.38R WCI  31          
BLUE HILL        N/A     32  15  49 VRB5      30.34F WCI  27          
NORWOOD        FAIR      39  15  37 SW5       30.39S                  
MARSHFIELD     NOT AVBL                                               
PLYMOUTH       FAIR      35  15  44 W7        30.40R WCI  29          
TAUNTON        FAIR      36  15  42 W5        30.39S                  
NEW BEDFORD    FAIR      34  15  46 W5        30.40R WCI  30          
$$

MAZALL-222200-
CAPE COD AND THE ISLANDS
  
CITY           SKY/WX    TMP DP  RH WIND       PRES   REMARKS
FALMOUTH       CLEAR     34  14  44 W6        30.40S WCI  29          
HYANNIS        NOT AVBL                                               
CHATHAM        FAIR      32  17  54 SW5       30.42R WCI  27          
PROVINCETOWN   FAIR      32  15  49 S3        30.41S                  
NANTUCKET      FAIR      33  19  56 W5        30.42R WCI  29          
MARTHAS VNYRD  FAIR      33  15  47 W5        30.41R WCI  29          
$$
 
MAZALL-222200-
CENTRAL AND WESTERN MASSACHUSETTS
  
CITY           SKY/WX    TMP DP  RH WIND       PRES   REMARKS
WORCESTER      FAIR      31  14  49 W10       30.35R WCI  22          
FITCHBURG      FAIR      36  15  42 NW6       30.38R WCI  31          
ORANGE         FAIR      32  16  51 S9        30.38R WCI  24          
SPRINGFIELD    NOT AVBL                                               
WESTFIELD      CLEAR     30  18  59 S6        30.39R WCI  24          
NORTH ADAMS    FAIR      32  18  56 SW3       30.37S                  
PITTSFIELD     FAIR      32  17  54 W5        30.34R WCI  27          
$$
 
RIZALL-222200-
RHODE ISLAND
  
CITY           SKY/WX    TMP DP  RH WIND       PRES   REMARKS
PROVIDENCE     FAIR      34  18  52 S8        30.40S WCI  27          
NEWPORT        FAIR      34  20  56 SE5       30.39S WCI  30          
BLOCK ISLAND   FAIR      32  20  61 W7        30.41F WCI  26          
SMITHFIELD     FAIR      35  15  44 W3        30.38S                  
WESTERLY       FAIR      37  21  52 SW6       30.41S                  
$$
 
CTZALL-222200-
CONNECTICUT
  
CITY           SKY/WX    TMP DP  RH WIND       PRES   REMARKS
BRADLEY INTL   FAIR      34  19  54 SE5       30.39S WCI  30          
HARTFORD       FAIR      37  18  46 SE3       30.40S                  
BRIDGEPORT     FAIR      37  20  50 SW8       30.42S WCI  31          
DANBURY        FAIR      36  16  44 CALM      30.40F                  
GROTON         NOT AVBL                                               
NEW HAVEN      FAIR      36  21  54 SW9       30.41F WCI  29          
CHESTER        NOT AVBL                                               
MERIDEN        FAIR      38  15  39 W9        30.40S WCI  31          
WILLIMANTIC    FAIR      34  17  50 W3        30.41R                  
OXFORD         FAIR      35  16  45 W3        30.38S                  
$$

MEZ002-015-021-024-NHZ003-005-008-011-012-014-VTZ005-008-222200-
NORTHERN NEW ENGLAND
  
CITY           SKY/WX    TMP DP  RH WIND       PRES   REMARKS
PORTLAND ME    FAIR      31  15  52 SE8       30.37S WCI  23          
BANGOR ME      FAIR      31  16  54 S3        30.34S                  
CONCORD NH     FAIR      35  15  44 CALM      30.35S                  
MANCHESTER NH  FAIR      37  15  40 CALM      30.35S                  
NASHUA NH      FAIR      34  16  47 CALM      30.38R                  
PORTSMOUTH NH  MOCLDY    34  13  43 SW5       30.36R WCI  29          
JAFFREY NH     FAIR      33  14  45 SW6       30.33R WCI  28          
KEENE NH       FAIR      33  16  49 S5        30.37R WCI  29          
BURLINGTON VT  MOCLDY    33  20  58 S12       30.30F WCI  24          
MT. WASHINGTON NOT AVBL                                               
$$

NYZ052-076-222200-
EASTERN NEW YORK
  
CITY           SKY/WX    TMP DP  RH WIND       PRES   REMARKS
ALBANY         FAIR      33  19  56 S5        30.41R WCI  29          
NEW YORK CITY  FAIR      38  15  39 NW3       30.42R                  
$$
 
ANZALL-222200-
MARINE OBSERVATIONS
  
STATION/POSITION TIME  TEMP    WIND        PRES    VSBY  WAVE
                       AIR SEA DIR/SP/G                  HT/PER
                 (UTC) (F)     (DEG/KT/KT) (MB)    (MI)  (FT/S)
BOSTON BUOY      1950   34 42  290/ 10/ 12 1029.0          1/10
BUZZARDS BAY     2000   32     220/  6/  7 1030.2R
NANTUCKET SOUND  2000                        N/A
MASS BAY-STELLWA 2004   33 42  260/  8/ 12 1027.5R  1 7/8  2/11
ISLE OF SHOALS   2000   33     200/  8/ 10 1028.4R
S OF BLOCK IS    2030      45                N/A           1/ 7
$$

......................KEY.........................
  SKY/WX - SKY CONDITION/PRESENT WEATHER
  TMP    - TEMPERATURE IN FAHRENHEIT
  DWPT   - DEWPOINT IN FAHRENHEIT
  RH     - RELATIVE HUMIDITY IN PERCENT
  WIND   - DIRECTION AND SPEED IN MPH
  PRES   - MEAN SEA LEVEL PRESSURE IN INCHES OF HG
  WCI    - WIND CHILL INDEX
  VSB    - VISIBILITY IN MILES
  HX     - HEAT INDEX
  TC     - TEMPERATURE IN CELSIUS
  VRB    - VARIABLE WIND DIRECTION
  N/A    - NOT AVAILABLE
  
      

Other recent Regional Weather Roundups

Thu Jan 23, 11:00am

Thu Jan 23, 10:10am

Thu Jan 23, 10:00am

Thu Jan 23, 9:10am

Thu Jan 23, 9:00am

Thu Jan 23, 8:10am

Thu Jan 23, 8:00am

Thu Jan 23, 7:10am

Thu Jan 23, 7:01am

Thu Jan 23, 6:10am

Thu Jan 23, 6:00am

Thu Jan 23, 5:10am

Thu Jan 23, 5:00am

Thu Jan 23, 4:10am

Thu Jan 23, 4:01am

Thu Jan 23, 3:10am

Thu Jan 23, 3:00am

Thu Jan 23, 2:10am

Thu Jan 23, 2:00am

Thu Jan 23, 1:10am

Thu Jan 23, 1:00am

Thu Jan 23, 12:10am

Thu Jan 23, 12:00am

Wed Jan 22, 11:10pm

Wed Jan 22, 11:01pm

Wed Jan 22, 10:10pm

Wed Jan 22, 10:00pm

Wed Jan 22, 9:10pm

Wed Jan 22, 9:00pm

Wed Jan 22, 8:10pm

Wed Jan 22, 8:01pm

Wed Jan 22, 7:10pm

Wed Jan 22, 7:00pm

Wed Jan 22, 6:10pm

Wed Jan 22, 6:01pm

Wed Jan 22, 5:10pm

Wed Jan 22, 5:00pm

Wed Jan 22, 4:10pm

Wed Jan 22, 3:10pm

Wed Jan 22, 3:00pm

Wed Jan 22, 2:10pm

Wed Jan 22, 2:00pm

Wed Jan 22, 1:10pm

Wed Jan 22, 1:00pm

Wed Jan 22, 12:10pm

Wed Jan 22, 12:00pm

Wed Jan 22, 11:10am

Wed Jan 22, 11:00am

Wed Jan 22, 10:10am

Wed Jan 22, 10:01am

Wed Jan 22, 9:10am

Wed Jan 22, 9:00am

Wed Jan 22, 8:10am

Wed Jan 22, 8:00am

Wed Jan 22, 7:10am

Wed Jan 22, 7:00am

Wed Jan 22, 6:10am

Wed Jan 22, 6:00am

Wed Jan 22, 5:10am

Wed Jan 22, 5:00am

Wed Jan 22, 4:10am

Wed Jan 22, 4:00am

Wed Jan 22, 3:10am

Wed Jan 22, 3:01am

Wed Jan 22, 2:10am

Wed Jan 22, 2:00am

Wed Jan 22, 1:10am

Wed Jan 22, 1:00am

Wed Jan 22, 12:10am

Wed Jan 22, 12:00am

Tue Jan 21, 11:10pm

Tue Jan 21, 11:00pm

Tue Jan 21, 10:10pm

Tue Jan 21, 10:00pm

Tue Jan 21, 9:10pm

Tue Jan 21, 9:01pm

Tue Jan 21, 8:10pm

Tue Jan 21, 8:00pm

Tue Jan 21, 7:10pm

Tue Jan 21, 7:00pm

Tue Jan 21, 6:10pm

Tue Jan 21, 6:01pm

Tue Jan 21, 5:10pm

Tue Jan 21, 5:00pm

Tue Jan 21, 4:10pm

Tue Jan 21, 4:00pm

Tue Jan 21, 3:10pm

Tue Jan 21, 3:01pm

Tue Jan 21, 2:10pm

Tue Jan 21, 2:00pm

Tue Jan 21, 1:10pm

Tue Jan 21, 1:00pm

Tue Jan 21, 12:10pm

Tue Jan 21, 12:00pm

Tue Jan 21, 11:10am

Tue Jan 21, 11:00am

Tue Jan 21, 10:10am

Tue Jan 21, 10:00am

Tue Jan 21, 9:10am

Tue Jan 21, 9:00am

Tue Jan 21, 8:10am

Tue Jan 21, 8:00am

Tue Jan 21, 7:10am

Tue Jan 21, 7:00am

Tue Jan 21, 6:10am

Tue Jan 21, 6:00am

Tue Jan 21, 5:10am

Tue Jan 21, 5:00am

Tue Jan 21, 4:10am

Tue Jan 21, 4:00am

Tue Jan 21, 3:10am

Tue Jan 21, 3:00am

Tue Jan 21, 2:10am

Tue Jan 21, 2:01am

Tue Jan 21, 1:10am

Tue Jan 21, 1:00am

Tue Jan 21, 12:10am

Tue Jan 21, 12:00am

Mon Jan 20, 11:10pm

Mon Jan 20, 11:00pm

Mon Jan 20, 10:10pm

Mon Jan 20, 10:00pm

Mon Jan 20, 9:10pm

Mon Jan 20, 9:00pm

Mon Jan 20, 8:10pm

Mon Jan 20, 8:00pm

Mon Jan 20, 7:10pm

Mon Jan 20, 7:00pm

Mon Jan 20, 6:10pm

Mon Jan 20, 6:00pm

Mon Jan 20, 5:10pm

Mon Jan 20, 5:00pm

Mon Jan 20, 4:10pm

Mon Jan 20, 4:01pm

Mon Jan 20, 3:10pm

Mon Jan 20, 3:00pm

Mon Jan 20, 2:10pm

Mon Jan 20, 2:00pm

Mon Jan 20, 1:10pm

Mon Jan 20, 1:00pm

Mon Jan 20, 12:10pm

Mon Jan 20, 12:00pm

Mon Jan 20, 11:10am

Meta data:

ID: b24f25ee-f763-4b74-b3ba-12654db0c435
Link: https://api.weather.gov/products/b24f25ee-f763-4b74-b3ba-12654db0c435